Tracking 20626 objects as of 10-Apr-2020
HD Live streaming from Space Station
objects crossing your sky now

ARIANE 1 DEB

Track ARIANE 1 DEB now!


NORAD ID: 40779
Int'l Code: 1979-104AG
Perigee: 753.8 km
Apogee: 38,468.1 km
Inclination: 18.4 °
Period: 694.7 minutes
Semi major axis: 25981 km
RCS: Unknown
Launch date: December 24, 1979
Source: European Space Agency (ESA)
Launch site: FRENCH GUIANA (FRGUI)

Note: This is SATELLITE DEBRIS
aabbcc
Your satellite tracking list
Your tracking list is empty




NASA's NSSDC Master Catalog

Two Line Element Set (TLE):
1 40779U 79104AG  20099.16639628 -.00000481  00000-0 -86585-2 0  9998
2 40779  18.3624 167.9048 7257791  46.6320 356.5858  2.07298103 48393
Source of the keplerian elements: AFSPC